Flag for Greece Weather past 2 weeks in Keratsini, Greece

63 °F

Light rain. Mostly cloudy.

Feels Like: 63 °F
Forecast: 60 / 66 °F
Wind: 18 mph from South

Location: Elefsis Airport

Current Time: Nov 25, 2015 at 9:02:43 PM

Latest Report: Nov 25, 2015 at 8:20 PM

Visibility: 5 mi

Pressure: 29.59 "Hg

Humidity: 77%

Dew point: 55 °F

Location of KeratsiniLocation

Historic Weather in Keratsini — Graph


Keratsini temperature yesterday

Maximum temperature yesterday: 72 °F (at 10:50 AM)
Minimum temperature yesterday: 54 °F (at 4:50 AM)
Average temperature yesterday: 63 °F

Past Weeks' High & Low Weather Summary

High79 °F (Nov 11, 1:50 PM)100% (Nov 21, 2:50 AM)30.33 "Hg (Nov 21, 2:50 AM)
Low48 °F (Nov 19, 3:20 AM)28% (Nov 11, 1:50 PM)29.62 "Hg (Nov 25, 7:50 PM)
Average63 °F68%30.06 "Hg
* Reported Nov 10 7:20 PM — Nov 25 7:50 PM, Keratsini, Weather by CustomWeather, © 2015

Note: Actual official high and low records may vary slightly from our data, if they occured in-between our weather recording intervals... More about our weather records


Keratsini weather history for previous 24 hours

Time TempWeatherWind HumidityBarometerVisibility
7:50 PM
Wed, Nov 25
63 °FThunderstorms. Mostly cloudy.23 mph94%29.62 "Hg3 mi
7:20 PM64 °FThunderstorms. Passing clouds.26 mph94%29.65 "Hg4 mi
6:50 PM64 °FThunderstorms. Passing clouds.24 mph83%29.65 "Hg5 mi
6:20 PM64 °FPartly cloudy.23 mph83%29.65 "HgN/A
5:50 PM66 °FPartly cloudy.22 mph78%29.68 "HgN/A
5:20 PM66 °FPassing clouds.23 mph78%29.68 "HgN/A
4:50 PM66 °FPartly sunny.21 mph78%29.68 "HgN/A
4:20 PM66 °FPartly sunny.20 mph78%29.71 "HgN/A
3:50 PM66 °FPartly sunny.18 mph83%29.71 "HgN/A
3:20 PM66 °FLight rain. Partly sunny.15 mph78%29.71 "Hg5 mi
2:50 PM61 °FLight rain. Partly sunny.14 mph94%29.74 "Hg6 mi
2:20 PM59 °FLight rain. Partly sunny.5 mph94%29.77 "Hg5 mi
1:50 PM61 °FLight rain. Partly sunny.5 mph88%29.80 "Hg5 mi
1:20 PM63 °FLight rain. Mostly cloudy.5 mph83%29.83 "Hg4 mi
12:50 PM63 °FLight rain. Partly sunny.12 mph77%29.83 "Hg5 mi
12:20 PM66 °FLight rain. Partly sunny.16 mph78%29.86 "Hg4 mi
11:50 AM68 °FPartly sunny.12 mph64%29.86 "HgN/A
11:20 AM70 °FBroken clouds.10 mph60%29.89 "HgN/A
10:50 AM70 °FScattered clouds.10 mph57%29.92 "HgN/A
10:20 AM70 °FScattered clouds.9 mph60%29.92 "HgN/A
9:50 AM64 °FBroken clouds.No wind78%29.92 "HgN/A
8:50 AM57 °FScattered clouds.No wind82%29.95 "HgN/A
7:50 AM52 °FScattered clouds.No wind88%29.95 "HgN/A
7:20 AM50 °FPassing clouds.No wind88%29.95 "HgN/A
6:50 AM52 °FPassing clouds.6 mph82%29.95 "HgN/A
5:50 AM52 °FPassing clouds.6 mph82%29.95 "HgN/A
5:20 AM52 °FPassing clouds.6 mph88%29.98 "HgN/A
4:50 AM52 °FPassing clouds.6 mph88%29.98 "HgN/A
4:20 AM52 °FPassing clouds.6 mph88%29.98 "HgN/A
3:50 AM54 °FPassing clouds.6 mph82%29.98 "HgN/A
3:20 AM54 °FPassing clouds.6 mph82%30.01 "HgN/A
2:50 AM54 °FPassing clouds.6 mph88%30.01 "HgN/A
2:20 AM55 °FPassing clouds.7 mph88%30.01 "HgN/A
1:50 AM55 °FPassing clouds.No wind82%30.04 "HgN/A
1:20 AM55 °FPassing clouds.No wind88%30.04 "HgN/A
12:50 AM57 °FPassing clouds.No wind82%30.04 "HgN/A
11:50 PM
Tue, Nov 24
57 °FPassing clouds.No wind88%30.07 "HgN/A
11:20 PM57 °FPassing clouds.No wind82%30.07 "HgN/A
10:50 PM57 °FPassing clouds.No wind88%30.07 "HgN/A
10:20 PM57 °FPassing clouds.No wind88%30.07 "HgN/A
9:50 PM59 °FPassing clouds.No wind82%30.09 "HgN/A
9:20 PM59 °FPassing clouds.No wind82%30.09 "HgN/A
Weather by CustomWeather, © 2015

See weather overviewHow to use our weather pages